QPF
0.00 0.00 0.00 0.00 0.00 0.00 0.00 0.00 0.00 0.00 0.00 0.00 0.00 0.00 0.01 0.02 0.00 0.00 0.00 0.00 0.00 0.00 0.00 0.00 0.00 0.00 0.00 0.00 0.00 0.00 0.00 0.00 0.00 0.00 0.00 0.00 0.00 0.00 0.00 0.00 0.00 0.00 0.00 0.00 0.00 0.00 0.00 0.00 0.00 0.00 0.00 0.00 0.00 0.00 0.00 0.00 0.00 0.00 0.00 0.00 0.00 0.00 0.00
0.00 0.00 0.00 0.00 0.00 0.00 0.00 0.00 0.00 0.00 0.00 0.00 0.00 0.00 0.00 0.00 0.00 0.01 0.00 0.00 0.00 0.00 0.00 0.00 0.00 0.00 0.00 0.00 0.00 0.00 0.00 0.00 0.00 0.00 0.00 0.00 0.00 0.00 0.00 0.00 0.00 0.00 0.00 0.00 0.00 0.00 0.00 0.00 0.00 0.00 0.00 0.00 0.00 0.00 0.00 0.00 0.00 0.00 0.00 0.00 0.00 0.00 0.00
0.00 0.00 0.00 0.00 0.00 0.00 0.00 0.00 0.00 0.00 0.00 0.00 0.00 0.00 0.00 0.00 0.00 0.00 0.00 0.00 0.00 0.00 0.01 0.01 0.01 0.00 0.00 0.00 0.00 0.00 0.00 0.00 0.00 0.00 0.00 0.00 0.00 0.00 0.00 0.00 0.00 0.00 0.00 0.00 0.00 0.00 0.00 0.00 0.00 0.00 0.00 0.00 0.00 0.00 0.00 0.00 0.00 0.00 0.00 0.00 0.00 0.00 0.00
0.00 0.00 0.00 0.00 0.00 0.00 0.00 0.00 0.00 0.00 0.00 0.00 0.00 0.00 0.00 0.00 0.00 0.00 0.00 0.00 0.00 0.00 0.00 0.01 0.00 0.01 0.00 0.00 0.00 0.00 0.00 0.00 0.00 0.00 0.00 0.00 0.00 0.00 0.00 0.00 0.00 0.00 0.00 0.00 0.00 0.00 0.00 0.00 0.00 0.00 0.00 0.00 0.00 0.00 0.00 0.00 0.00 0.00 0.00 0.00 0.00 0.00 0.00
0.00 0.00 0.00 0.00 0.00 0.00 0.00 0.00 0.00 0.00 0.00 0.00 0.00 0.00 0.00 0.00 0.00 0.00 0.00 0.00 0.00 0.00 0.00 0.01 0.01 0.00 0.00 0.00 0.00 0.00 0.00 0.00 0.00 0.00 0.00 0.00 0.00 0.00 0.00 0.00 0.00 0.00 0.00 0.00 0.00 0.00 0.00 0.00 0.00 0.00 0.00 0.00 0.00 0.00 0.00 0.00 0.00 0.00 0.00 0.00 0.00 0.00 0.00
0.00 0.00 0.01 0.00 0.00 0.00 0.00 0.00 0.00 0.00 0.00 0.00 0.00 0.00 0.00 0.00 0.00 0.00 0.00 0.00 0.00 0.01 0.01 0.01 0.01 0.01 0.00 0.00 0.00 0.00 0.00 0.00 0.00 0.00 0.00 0.00 0.00 0.00 0.00 0.00 0.00 0.00 0.00 0.00 0.00 0.00 0.00 0.00 0.00 0.00 0.00 0.00 0.00 0.00 0.00 0.00 0.00 0.00 0.00 0.00 0.00 0.00 0.00
0.00 0.01 0.01 0.01 0.01 0.01 0.01 0.01 0.01 0.01 0.00 0.00 0.00 0.00 0.00 0.00 0.00 0.00 0.00 0.00 0.01 0.01 0.01 0.01 0.01 0.01 0.01 0.01 0.00 0.00 0.00 0.00 0.00 0.00 0.00 0.00 0.00 0.00 0.00 0.00 0.00 0.00 0.00 0.00 0.00 0.00 0.00 0.00 0.00 0.00 0.00 0.00 0.00 0.00 0.00 0.00 0.00 0.00 0.00 0.00 0.00 0.00 0.00
0.00 0.01 0.01 0.01 0.01 0.01 0.01 0.01 0.01 0.02 0.02 0.01 0.01 0.00 0.00 0.00 0.00 0.00 0.00 0.01 0.01 0.01 0.01 0.02 0.01 0.01 0.01 0.00 0.00 0.00 0.00 0.00 0.00 0.00 0.00 0.00 0.00 0.00 0.00 0.00 0.00 0.00 0.00 0.00 0.00 0.00 0.00 0.00 0.00 0.00 0.00 0.00 0.00 0.00 0.00 0.00 0.00 0.00 0.00 0.00 0.00 0.00 0.00
0.00 0.01 0.01 0.01 0.01 0.01 0.02 0.02 0.02 0.02 0.02 0.02 0.02 0.01 0.00 0.00 0.02 0.01 0.00 0.00 0.00 0.01 0.01 0.02 0.02 0.02 0.01 0.01 0.00 0.00 0.00 0.00 0.00 0.00 0.00 0.00 0.00 0.00 0.00 0.00 0.00 0.00 0.00 0.00 0.00 0.00 0.00 0.00 0.00 0.00 0.00 0.00 0.00 0.00 0.00 0.00 0.00 0.00 0.00 0.00 0.00 0.00 0.00
0.01 0.01 0.01 0.01 0.01 0.02 0.02 0.03 0.04 0.03 0.03 0.04 0.03 0.02 0.01 0.02 0.01 0.01 0.01 0.01 0.01 0.01 0.01 0.01 0.01 0.01 0.02 0.02 0.01 0.00 0.00 0.00 0.00 0.00 0.00 0.00 0.00 0.00 0.00 0.00 0.00 0.00 0.00 0.00 0.00 0.00 0.00 0.00 0.00 0.00 0.00 0.00 0.00 0.00 0.00 0.00 0.00 0.00 0.00 0.00 0.00 0.00 0.00
0.02 0.01 0.02 0.02 0.02 0.02 0.04 0.05 0.05 0.04 0.05 0.06 0.06 0.05 0.04 0.03 0.02 0.01 0.01 0.01 0.01 0.01 0.01 0.01 0.01 0.01 0.01 0.01 0.01 0.00 0.00 0.00 0.00 0.00 0.00 0.00 0.00 0.00 0.00 0.00 0.00 0.00 0.00 0.00 0.00 0.00 0.00 0.00 0.00 0.00 0.00 0.00 0.00 0.00 0.00 0.00 0.00 0.00 0.00 0.00 0.00 0.00 0.00
0.02 0.02 0.03 0.03 0.04 0.05 0.05 0.06 0.06 0.06 0.08 0.09 0.10 0.09 0.06 0.04 0.03 0.02 0.01 0.01 0.01 0.01 0.01 0.01 0.01 0.01 0.01 0.01 0.01 0.00 0.00 0.00 0.00 0.00 0.00 0.00 0.00 0.00 0.00 0.00 0.00 0.00 0.01 0.01 0.01 0.01 0.01 0.01 0.01 0.00 0.00 0.00 0.00 0.00 0.00 0.00 0.00 0.00 0.00 0.01 0.01 0.00 0.00
0.02 0.04 0.04 0.05 0.06 0.06 0.06 0.07 0.08 0.10 0.11 0.12 0.12 0.10 0.06 0.04 0.03 0.02 0.01 0.01 0.01 0.01 0.01 0.01 0.01 0.01 0.01 0.01 0.01 0.01 0.00 0.00 0.00 0.00 0.00 0.00 0.00 0.00 0.00 0.00 0.01 0.01 0.01 0.01 0.01 0.01 0.01 0.00 0.00 0.00 0.00 0.00 0.00 0.00 0.00 0.00 0.01 0.01 0.01 0.01 0.01 0.00 0.00
0.02 0.03 0.04 0.05 0.07 0.07 0.09 0.09 0.11 0.13 0.14 0.13 0.12 0.11 0.08 0.04 0.03 0.02 0.01 0.01 0.01 0.01 0.01 0.01 0.01 0.01 0.01 0.01 0.01 0.01 0.01 0.00 0.00 0.00 0.00 0.00 0.01 0.01 0.01 0.01 0.01 0.01 0.01 0.02 0.01 0.00 0.00 0.00 0.00 0.00 0.00 0.00 0.00 0.00 0.01 0.01 0.01 0.01 0.01 0.01 0.00 0.00 0.00
0.02 0.03 0.04 0.06 0.07 0.09 0.09 0.08 0.09 0.13 0.14 0.14 0.12 0.09 0.12 0.04 0.02 0.02 0.02 0.01 0.01 0.01 0.01 0.01 0.01 0.01 0.01 0.01 0.01 0.01 0.01 0.00 0.00 0.00 0.00 0.00 0.01 0.01 0.01 0.01 0.00 0.00 0.00 0.00 0.00 0.00 0.00 0.00 0.00 0.00 0.00 0.00 0.01 0.02 0.02 0.02 0.01 0.01 0.01 0.00 0.00 0.00 0.00
0.02 0.03 0.04 0.06 0.08 0.09 0.09 0.08 0.09 0.12 0.12 0.11 0.09 0.08 0.08 0.08 0.03 0.02 0.02 0.02 0.01 0.01 0.01 0.01 0.01 0.01 0.01 0.01 0.01 0.01 0.01 0.01 0.00 0.00 0.00 0.00 0.01 0.01 0.01 0.00 0.00 0.00 0.00 0.00 0.00 0.00 0.00 0.00 0.00 0.01 0.03 0.03 0.02 0.01 0.00 0.00 0.00 0.00 0.00 0.00 0.00 0.00 0.00
0.01 0.02 0.04 0.06 0.07 0.08 0.08 0.09 0.09 0.11 0.10 0.09 0.07 0.07 0.07 0.09 0.04 0.02 0.02 0.02 0.02 0.01 0.01 0.01 0.01 0.01 0.01 0.01 0.01 0.01 0.01 0.01 0.01 0.01 0.01 0.01 0.01 0.01 0.01 0.00 0.00 0.00 0.00 0.00 0.00 0.00 0.00 0.01 0.01 0.00 0.00 0.00 0.00 0.00 0.00 0.00 0.00 0.00 0.00 0.00 0.00 0.00 0.00
0.02 0.02 0.03 0.06 0.08 0.09 0.10 0.09 0.09 0.09 0.08 0.06 0.05 0.06 0.07 0.08 0.06 0.02 0.01 0.01 0.01 0.01 0.01 0.01 0.01 0.01 0.01 0.01 0.01 0.01 0.01 0.01 0.01 0.01 0.01 0.01 0.01 0.01 0.01 0.00 0.00 0.00 0.00 0.00 0.00 0.00 0.00 0.00 0.00 0.00 0.00 0.00 0.00 0.00 0.00 0.00 0.00 0.00 0.00 0.00 0.00 0.00 0.00
0.02 0.02 0.04 0.06 0.08 0.10 0.10 0.08 0.07 0.07 0.06 0.05 0.04 0.05 0.06 0.05 0.03 0.02 0.02 0.03 0.03 0.03 0.02 0.01 0.01 0.02 0.02 0.01 0.01 0.01 0.01 0.01 0.01 0.01 0.01 0.01 0.01 0.01 0.00 0.00 0.00 0.00 0.00 0.00 0.00 0.00 0.00 0.00 0.00 0.00 0.00 0.00 0.00 0.00 0.00 0.00 0.00 0.00 0.00 0.00 0.00 0.00 0.00
0.01 0.02 0.03 0.06 0.09 0.10 0.09 0.08 0.07 0.05 0.03 0.03 0.03 0.04 0.04 0.04 0.03 0.02 0.01 0.01 0.01 0.02 0.02 0.02 0.02 0.02 0.02 0.01 0.01 0.01 0.01 0.01 0.02 0.02 0.01 0.01 0.01 0.01 0.00 0.00 0.00 0.00 0.00 0.00 0.00 0.00 0.00 0.00 0.00 0.00 0.00 0.00 0.00 0.00 0.00 0.00 0.00 0.00 0.00 0.00 0.00 0.00 0.00
0.01 0.01 0.02 0.04 0.07 0.09 0.09 0.07 0.06 0.04 0.03 0.02 0.03 0.03 0.05 0.03 0.01 0.01 0.01 0.01 0.02 0.01 0.02 0.02 0.02 0.02 0.02 0.02 0.01 0.01 0.01 0.02 0.02 0.02 0.01 0.01 0.01 0.00 0.00 0.00 0.00 0.00 0.00 0.00 0.00 0.00 0.00 0.00 0.00 0.00 0.00 0.00 0.00 0.00 0.00 0.00 0.00 0.00 0.00 0.00 0.00 0.00 0.00
0.01 0.01 0.01 0.02 0.04 0.06 0.07 0.06 0.05 0.04 0.03 0.03 0.03 0.03 0.05 0.02 0.01 0.01 0.02 0.01 0.01 0.02 0.02 0.02 0.02 0.02 0.02 0.02 0.02 0.01 0.01 0.02 0.02 0.02 0.01 0.01 0.00 0.00 0.01 0.00 0.00 0.00 0.00 0.00 0.00 0.00 0.00 0.00 0.00 0.00 0.00 0.00 0.00 0.00 0.00 0.00 0.00 0.00 0.00 0.00 0.00 0.00 0.00
0.01 0.01 0.01 0.02 0.03 0.03 0.03 0.03 0.04 0.04 0.03 0.03 0.03 0.03 0.04 0.03 0.01 0.01 0.01 0.01 0.01 0.01 0.01 0.02 0.02 0.02 0.02 0.02 0.01 0.01 0.02 0.02 0.02 0.02 0.01 0.01 0.00 0.01 0.00 0.00 0.00 0.00 0.00 0.00 0.00 0.00 0.00 0.00 0.00 0.00 0.00 0.00 0.00 0.00 0.00 0.00 0.00 0.00 0.00 0.00 0.00 0.00 0.00
0.01 0.01 0.01 0.01 0.02 0.03 0.03 0.03 0.04 0.04 0.03 0.03 0.02 0.02 0.02 0.04 0.02 0.01 0.01 0.01 0.01 0.01 0.02 0.02 0.02 0.01 0.01 0.01 0.01 0.02 0.03 0.02 0.02 0.01 0.00 0.00 0.01 0.00 0.00 0.00 0.00 0.00 0.00 0.00 0.00 0.00 0.00 0.00 0.00 0.00 0.00 0.00 0.00 0.00 0.00 0.00 0.00 0.00 0.00 0.00 0.00 0.00 0.00
0.01 0.01 0.01 0.01 0.01 0.03 0.03 0.03 0.04 0.03 0.03 0.02 0.02 0.02 0.01 0.04 0.03 0.01 0.01 0.01 0.01 0.01 0.01 0.01 0.01 0.01 0.01 0.01 0.02 0.02 0.03 0.02 0.01 0.00 0.00 0.00 0.00 0.00 0.00 0.00 0.00 0.00 0.00 0.00 0.00 0.00 0.00 0.00 0.00 0.00 0.00 0.00 0.00 0.00 0.00 0.00 0.00 0.00 0.00 0.00 0.00 0.00 0.00
0.02 0.01 0.01 0.01 0.01 0.02 0.03 0.04 0.03 0.03 0.02 0.02 0.01 0.02 0.02 0.02 0.03 0.02 0.01 0.01 0.01 0.01 0.01 0.01 0.01 0.01 0.01 0.02 0.03 0.03 0.01 0.01 0.01 0.01 0.00 0.00 0.00 0.00 0.00 0.00 0.00 0.00 0.00 0.00 0.00 0.00 0.00 0.00 0.00 0.00 0.00 0.00 0.00 0.00 0.00 0.00 0.00 0.00 0.00 0.00 0.00 0.00 0.00
0.02 0.01 0.01 0.01 0.01 0.01 0.01 0.02 0.03 0.03 0.02 0.02 0.01 0.01 0.01 0.01 0.03 0.04 0.02 0.01 0.01 0.02 0.02 0.02 0.02 0.02 0.02 0.03 0.02 0.01 0.01 0.01 0.01 0.00 0.00 0.00 0.00 0.00 0.00 0.00 0.00 0.00 0.00 0.00 0.00 0.00 0.00 0.00 0.00 0.00 0.00 0.00 0.00 0.00 0.00 0.00 0.00 0.00 0.00 0.00 0.00 0.00 0.00
0.01 0.01 0.01 0.01 0.01 0.02 0.01 0.01 0.01 0.01 0.01 0.01 0.01 0.01 0.01 0.01 0.02 0.05 0.04 0.01 0.01 0.02 0.02 0.02 0.03 0.05 0.03 0.02 0.02 0.01 0.01 0.01 0.00 0.00 0.00 0.00 0.00 0.00 0.00 0.00 0.00 0.00 0.00 0.00 0.00 0.00 0.00 0.00 0.00 0.00 0.00 0.00 0.00 0.00 0.00 0.00 0.00 0.00 0.00 0.00 0.00 0.00 0.00
0.02 0.02 0.01 0.01 0.01 0.01 0.01 0.01 0.01 0.01 0.00 0.00 0.01 0.01 0.01 0.01 0.01 0.03 0.03 0.01 0.01 0.02 0.03 0.03 0.03 0.02 0.02 0.02 0.02 0.01 0.01 0.00 0.00 0.00 0.00 0.00 0.00 0.00 0.00 0.00 0.00 0.00 0.00 0.00 0.00 0.00 0.00 0.00 0.00 0.00 0.00 0.00 0.00 0.00 0.00 0.00 0.00 0.00 0.00 0.00 0.00 0.00 0.00
0.06 0.04 0.01 0.01 0.00 0.00 0.01 0.01 0.01 0.01 0.01 0.01 0.00 0.01 0.01 0.01 0.01 0.02 0.02 0.02 0.02 0.02 0.02 0.02 0.02 0.02 0.02 0.02 0.01 0.01 0.01 0.00 0.00 0.00 0.00 0.00 0.00 0.00 0.00 0.00 0.00 0.00 0.00 0.00 0.00 0.00 0.00 0.00 0.00 0.00 0.00 0.00 0.00 0.00 0.00 0.00 0.00 0.00 0.00 0.00 0.00 0.00 0.00
0.02 0.01 0.01 0.01 0.01 0.01 0.00 0.00 0.00 0.00 0.01 0.01 0.01 0.01 0.01 0.01 0.01 0.02 0.03 0.02 0.02 0.02 0.02 0.02 0.02 0.02 0.02 0.02 0.01 0.01 0.00 0.00 0.00 0.00 0.00 0.00 0.00 0.00 0.00 0.00 0.00 0.00 0.00 0.00 0.00 0.00 0.00 0.00 0.00 0.00 0.00 0.00 0.00 0.00 0.00 0.00 0.00 0.00 0.00 0.00 0.00 0.00 0.00
0.01 0.01 0.02 0.02 0.01 0.01 0.01 0.01 0.00 0.00 0.00 0.01 0.01 0.02 0.01 0.01 0.02 0.02 0.03 0.03 0.02 0.02 0.01 0.01 0.02 0.02 0.02 0.02 0.01 0.01 0.00 0.00 0.00 0.00 0.00 0.00 0.00 0.00 0.00 0.00 0.00 0.00 0.00 0.00 0.00 0.00 0.00 0.00 0.00 0.00 0.00 0.00 0.00 0.00 0.00 0.00 0.00 0.00 0.00 0.00 0.00 0.00 0.00
0.02 0.02 0.02 0.02 0.02 0.01 0.01 0.01 0.01 0.00 0.00 0.01 0.01 0.01 0.02 0.01 0.03 0.04 0.04 0.04 0.03 0.02 0.02 0.02 0.02 0.02 0.02 0.01 0.01 0.00 0.00 0.00 0.00 0.00 0.00 0.00 0.00 0.00 0.00 0.00 0.00 0.00 0.00 0.00 0.00 0.00 0.00 0.00 0.00 0.00 0.00 0.00 0.00 0.00 0.00 0.00 0.00 0.00 0.00 0.00 0.00 0.00 0.00
0.04 0.02 0.02 0.01 0.02 0.02 0.01 0.00 0.01 0.01 0.01 0.01 0.01 0.01 0.01 0.02 0.03 0.05 0.03 0.03 0.03 0.02 0.02 0.02 0.02 0.02 0.02 0.01 0.01 0.00 0.00 0.00 0.00 0.00 0.00 0.00 0.00 0.00 0.00 0.00 0.00 0.00 0.00 0.00 0.00 0.00 0.00 0.00 0.00 0.00 0.00 0.00 0.00 0.00 0.00 0.00 0.00 0.00 0.00 0.00 0.00 0.00 0.00
0.05 0.04 0.01 0.01 0.01 0.02 0.01 0.01 0.00 0.01 0.01 0.02 0.01 0.01 0.02 0.02 0.05 0.07 0.04 0.03 0.02 0.02 0.02 0.02 0.02 0.02 0.01 0.01 0.00 0.00 0.00 0.00 0.00 0.00 0.00 0.00 0.00 0.00 0.00 0.00 0.00 0.00 0.00 0.00 0.00 0.00 0.00 0.00 0.00 0.00 0.00 0.00 0.00 0.00 0.00 0.00 0.00 0.00 0.00 0.00 0.00 0.00 0.00
0.04 0.03 0.01 0.00 0.01 0.02 0.02 0.01 0.00 0.01 0.01 0.01 0.01 0.01 0.02 0.03 0.04 0.03 0.02 0.03 0.03 0.02 0.02 0.02 0.02 0.02 0.01 0.00 0.00 0.00 0.00 0.00 0.00 0.00 0.00 0.00 0.00 0.00 0.00 0.00 0.00 0.00 0.00 0.00 0.00 0.00 0.00 0.00 0.00 0.00 0.00 0.00 0.00 0.00 0.00 0.00 0.00 0.00 0.00 0.00 0.00 0.00 0.00
MSLP
1006.75 1006.67 1006.63 1006.55 1006.55 1006.51 1006.59 1006.67 1006.71 1006.67 1006.71 1006.79 1006.91 1007.19 1007.43 1007.79 1008.11 1008.39 1008.79 1009.31 1009.91 1010.27 1010.63 1010.99 1011.43 1011.83 1012.23 1012.71 1013.31 1013.63 1013.99 1014.27 1014.59 1015.03 1015.35 1015.63 1015.83 1016.03 1016.23 1016.55 1016.95 1017.23 1017.11 1016.75 1016.67 1016.59 1016.55 1016.59 1016.71 1016.71 1016.63 1016.47 1016.39 1016.31 1016.19 1016.19 1016.07 1015.87 1015.71 1015.63 1015.51 1015.31 1015.15
1006.19 1006.11 1006.03 1006.11 1006.03 1006.03 1005.99 1006.03 1006.07 1006.15 1006.23 1006.27 1006.47 1006.71 1007.03 1007.39 1007.67 1007.99 1008.31 1008.95 1009.43 1009.91 1010.43 1010.75 1011.11 1011.55 1012.03 1012.43 1012.91 1013.23 1013.55 1013.83 1014.19 1014.51 1014.91 1015.19 1015.39 1015.55 1015.71 1015.91 1016.35 1016.55 1016.83 1016.63 1016.47 1016.55 1016.51 1016.59 1016.55 1016.51 1016.31 1016.23 1016.11 1015.91 1015.87 1015.79 1015.67 1015.51 1015.39 1015.31 1015.15 1014.95 1014.63
1005.59 1005.59 1005.59 1005.55 1005.51 1005.47 1005.43 1005.39 1005.47 1005.55 1005.67 1005.75 1005.95 1006.19 1006.51 1006.83 1007.15 1007.43 1007.75 1008.31 1008.83 1009.39 1009.99 1010.55 1010.83 1011.19 1011.63 1012.15 1012.63 1012.87 1013.11 1013.39 1013.71 1014.03 1014.39 1014.63 1014.83 1015.07 1015.27 1015.51 1015.75 1016.11 1016.43 1016.59 1016.39 1016.39 1016.43 1016.31 1016.23 1016.15 1015.99 1015.91 1015.75 1015.59 1015.51 1015.35 1015.15 1015.03 1014.95 1014.87 1014.79 1014.59 1014.23
1005.15 1005.19 1005.15 1005.03 1004.99 1004.95 1004.83 1004.83 1004.87 1004.95 1005.11 1005.23 1005.43 1005.67 1005.95 1006.35 1006.67 1006.91 1007.19 1007.55 1008.11 1008.67 1009.27 1009.75 1010.35 1010.71 1011.19 1011.67 1012.19 1012.39 1012.75 1012.95 1013.27 1013.51 1013.79 1014.15 1014.35 1014.63 1014.87 1015.11 1015.35 1015.63 1015.87 1016.03 1016.27 1016.07 1016.27 1016.07 1016.03 1015.83 1015.75 1015.63 1015.39 1015.27 1015.11 1014.91 1014.55 1014.51 1014.47 1014.35 1014.27 1014.07 1013.71
1004.59 1004.59 1004.55 1004.51 1004.39 1004.39 1004.31 1004.27 1004.31 1004.47 1004.59 1004.75 1004.87 1005.03 1005.35 1005.83 1006.23 1006.51 1006.71 1007.03 1007.47 1007.99 1008.47 1009.07 1009.55 1010.15 1010.71 1011.23 1011.67 1012.03 1012.31 1012.55 1012.87 1013.07 1013.31 1013.55 1013.79 1014.07 1014.35 1014.63 1014.95 1015.27 1015.55 1015.79 1015.95 1015.87 1015.87 1015.87 1015.83 1015.59 1015.43 1015.23 1015.11 1014.83 1014.59 1014.35 1014.31 1014.15 1013.99 1013.87 1013.71 1013.47 1013.11
1004.07 1004.07 1003.95 1003.87 1003.83 1003.79 1003.75 1003.67 1003.75 1003.91 1004.07 1004.27 1004.47 1004.63 1004.87 1005.27 1005.71 1006.03 1006.35 1006.67 1007.07 1007.55 1007.95 1008.39 1008.95 1009.55 1010.11 1010.67 1011.03 1011.31 1011.63 1012.03 1012.39 1012.71 1012.91 1013.19 1013.35 1013.55 1013.83 1014.19 1014.51 1014.87 1015.19 1015.51 1015.63 1015.75 1015.63 1015.59 1015.51 1015.23 1014.91 1014.71 1014.71 1014.59 1014.27 1013.95 1013.83 1013.79 1013.75 1013.63 1013.31 1012.95 1012.63
1003.63 1003.43 1003.43 1003.31 1003.27 1003.27 1003.19 1003.19 1003.23 1003.35 1003.55 1003.83 1004.11 1004.31 1004.55 1004.83 1005.23 1005.63 1006.03 1006.39 1006.75 1007.19 1007.59 1008.03 1008.51 1008.99 1009.51 1009.99 1010.43 1010.79 1011.15 1011.55 1012.07 1012.39 1012.71 1012.83 1013.03 1013.27 1013.67 1013.99 1014.23 1014.51 1014.87 1015.19 1015.39 1015.35 1015.39 1015.35 1015.07 1014.91 1014.59 1014.31 1014.35 1014.35 1014.19 1013.83 1013.67 1013.47 1013.31 1013.19 1012.99 1012.75 1012.59
1003.07 1002.87 1002.83 1002.71 1002.71 1002.63 1002.67 1002.75 1002.79 1002.83 1003.03 1003.35 1003.67 1003.87 1004.15 1004.35 1004.71 1005.19 1005.67 1006.15 1006.63 1007.03 1007.39 1007.79 1008.19 1008.55 1008.95 1009.43 1009.95 1010.35 1010.71 1011.15 1011.59 1012.03 1012.43 1012.59 1012.91 1013.19 1013.55 1013.83 1014.03 1014.27 1014.55 1014.79 1014.99 1015.07 1015.15 1014.99 1014.67 1014.27 1014.07 1014.03 1014.07 1013.99 1013.71 1013.47 1013.39 1013.27 1013.07 1012.91 1012.71 1012.59 1012.51
1002.55 1002.47 1002.35 1002.19 1002.15 1002.11 1002.11 1002.19 1002.19 1002.23 1002.47 1002.83 1003.19 1003.43 1003.63 1003.91 1004.27 1004.71 1005.27 1005.83 1006.31 1006.71 1007.15 1007.59 1007.99 1008.35 1008.67 1009.07 1009.47 1009.87 1010.23 1010.63 1011.03 1011.55 1012.07 1012.43 1012.75 1013.03 1013.35 1013.59 1013.75 1013.91 1014.19 1014.43 1014.75 1014.91 1014.91 1014.79 1014.47 1014.03 1013.91 1013.79 1013.75 1013.63 1013.43 1013.19 1013.35 1013.19 1013.03 1012.75 1012.59 1012.27 1012.35
1002.07 1001.99 1001.83 1001.67 1001.51 1001.51 1001.55 1001.55 1001.55 1001.55 1001.75 1002.07 1002.55 1002.95 1003.19 1003.55 1003.87 1004.23 1004.79 1005.43 1005.91 1006.39 1006.87 1007.31 1007.75 1008.07 1008.35 1008.67 1009.07 1009.47 1009.83 1010.27 1010.67 1011.11 1011.51 1011.87 1012.39 1012.79 1013.11 1013.39 1013.59 1013.83 1013.91 1014.15 1014.47 1014.59 1014.71 1014.51 1014.11 1013.79 1013.59 1013.43 1013.23 1013.11 1013.15 1013.31 1013.31 1013.11 1012.75 1012.79 1012.35 1011.91 1011.79
1001.59 1001.43 1001.31 1001.19 1001.07 1000.95 1000.95 1000.99 1000.95 1000.99 1001.15 1001.43 1001.87 1002.43 1002.75 1003.03 1003.43 1003.83 1004.31 1004.79 1005.35 1005.95 1006.47 1007.03 1007.51 1007.87 1008.15 1008.43 1008.75 1009.11 1009.39 1009.79 1010.23 1010.71 1011.15 1011.55 1011.95 1012.23 1012.55 1013.03 1013.31 1013.47 1013.63 1013.87 1014.07 1014.11 1014.19 1013.99 1013.75 1013.43 1013.31 1013.07 1012.99 1013.15 1013.27 1013.19 1013.03 1012.83 1012.67 1012.67 1012.51 1011.55 1010.71
1001.07 1000.87 1000.75 1000.63 1000.59 1000.51 1000.39 1000.39 1000.43 1000.51 1000.71 1000.95 1001.23 1001.71 1002.11 1002.51 1002.95 1003.47 1003.91 1004.35 1004.79 1005.43 1006.03 1006.59 1007.15 1007.59 1007.99 1008.19 1008.43 1008.71 1009.07 1009.43 1009.83 1010.23 1010.67 1011.07 1011.47 1011.79 1012.03 1012.27 1012.55 1012.83 1013.19 1013.47 1013.67 1013.71 1013.63 1013.63 1013.39 1013.31 1013.39 1013.31 1013.35 1013.23 1013.11 1012.91 1012.79 1012.59 1012.35 1012.11 1011.87 1011.35 1010.83
1000.51 1000.23 1000.11 1000.07 1000.03 999.95 999.95 999.99 999.99 1000.11 1000.23 1000.43 1000.63 1001.03 1001.59 1001.99 1002.39 1002.91 1003.43 1003.95 1004.43 1004.99 1005.55 1006.15 1006.71 1007.31 1007.79 1008.03 1008.19 1008.43 1008.83 1009.23 1009.55 1009.83 1010.19 1010.59 1010.95 1011.35 1011.63 1011.79 1011.87 1011.95 1012.19 1012.51 1012.87 1013.03 1013.15 1013.31 1013.47 1013.67 1013.51 1013.55 1013.47 1013.15 1012.83 1012.51 1012.31 1012.03 1011.87 1011.59 1011.27 1010.71 1010.35
999.91 999.71 999.67 999.59 999.51 999.43 999.43 999.55 999.67 999.75 999.87 999.95 1000.15 1000.43 1000.99 1001.51 1001.95 1002.43 1002.95 1003.51 1004.03 1004.51 1005.07 1005.59 1006.19 1006.79 1007.43 1007.87 1007.99 1008.19 1008.63 1009.07 1009.39 1009.63 1009.87 1010.19 1010.55 1010.87 1011.03 1011.15 1011.23 1011.31 1011.59 1011.95 1012.39 1012.95 1013.35 1013.35 1013.75 1013.63 1013.39 1013.23 1013.03 1012.83 1012.55 1012.27 1011.83 1011.63 1011.43 1011.31 1011.07 1010.79 1010.71
999.43 999.27 999.15 999.03 998.99 998.99 998.99 999.11 999.23 999.35 999.43 999.55 999.71 999.91 1000.39 1001.19 1001.67 1002.23 1002.71 1003.19 1003.67 1004.11 1004.59 1005.11 1005.63 1006.23 1006.83 1007.43 1007.75 1007.91 1008.39 1008.87 1009.23 1009.55 1009.83 1010.15 1010.55 1010.91 1011.15 1011.27 1011.31 1011.47 1011.79 1012.11 1012.39 1012.59 1012.91 1013.11 1013.23 1013.15 1012.91 1012.71 1012.55 1012.43 1012.15 1011.95 1011.83 1011.87 1011.75 1011.51 1011.19 1010.91 1010.59
999.03 998.87 998.67 998.51 998.59 998.67 998.67 998.71 998.75 998.87 999.03 999.15 999.27 999.55 999.91 1000.87 1001.43 1001.99 1002.51 1002.99 1003.47 1003.95 1004.35 1004.79 1005.27 1005.87 1006.51 1007.07 1007.51 1007.71 1007.95 1008.47 1008.99 1009.39 1009.79 1010.15 1010.51 1010.87 1011.07 1011.11 1011.11 1011.27 1011.51 1011.75 1011.99 1012.35 1012.67 1012.71 1012.63 1012.47 1012.35 1012.19 1012.11 1012.19 1012.27 1012.19 1011.99 1011.91 1011.83 1011.75 1011.27 1010.63 1009.95
998.43 998.23 998.19 998.15 998.27 998.35 998.31 998.35 998.39 998.47 998.59 998.79 998.91 999.23 999.59 1000.55 1001.15 1001.75 1002.23 1002.75 1003.19 1003.63 1004.07 1004.51 1005.03 1005.55 1006.23 1006.83 1007.35 1007.51 1007.63 1007.99 1008.63 1009.27 1009.71 1010.15 1010.55 1010.79 1010.91 1010.83 1011.03 1011.11 1011.23 1011.51 1011.63 1011.71 1011.87 1012.07 1012.15 1012.07 1012.07 1012.15 1012.23 1012.31 1012.31 1012.31 1012.35 1011.87 1011.91 1011.99 1011.43 1010.15 1010.11
997.95 997.75 997.79 997.87 997.91 997.95 998.03 997.99 998.07 998.15 998.27 998.43 998.63 998.87 999.43 1000.27 1000.79 1001.51 1001.91 1002.47 1002.95 1003.35 1003.79 1004.19 1004.59 1005.23 1006.03 1006.59 1007.03 1007.23 1007.27 1007.51 1008.15 1009.07 1009.59 1010.11 1010.43 1010.63 1010.63 1010.63 1010.95 1011.39 1011.55 1011.59 1011.79 1012.07 1012.15 1012.19 1012.23 1012.39 1012.59 1012.71 1012.55 1012.39 1012.39 1012.63 1012.35 1011.83 1012.55 1012.23 1011.71 1010.71 1009.83
997.59 997.39 997.43 997.55 997.59 997.59 997.75 997.79 997.87 997.95 998.03 998.15 998.35 998.63 999.27 999.99 1000.51 1001.27 1001.75 1002.23 1002.87 1003.35 1003.71 1004.11 1004.55 1005.11 1005.79 1006.23 1006.63 1006.83 1006.91 1007.07 1007.75 1008.71 1009.23 1009.63 1009.99 1010.11 1010.23 1010.31 1010.79 1011.15 1011.43 1011.79 1012.03 1012.11 1012.43 1012.31 1012.59 1012.87 1012.99 1012.91 1012.63 1012.51 1012.63 1012.83 1012.75 1012.63 1012.59 1011.87 1011.23 1010.95 1010.51
997.23 997.15 997.15 997.27 997.43 997.47 997.47 997.63 997.75 997.87 997.87 997.95 998.11 998.35 999.07 999.67 1000.15 1000.79 1001.43 1001.99 1002.55 1003.31 1003.83 1004.19 1004.63 1004.99 1005.47 1005.87 1006.19 1006.43 1006.59 1006.79 1007.19 1008.11 1008.67 1009.07 1009.43 1009.75 1009.87 1010.07 1010.67 1011.15 1011.51 1011.95 1012.35 1012.47 1012.87 1012.91 1013.11 1013.15 1013.07 1012.95 1012.91 1012.95 1013.03 1012.79 1012.59 1012.39 1012.15 1011.71 1011.31 1010.99 1010.83
996.95 996.95 997.03 997.11 997.23 997.31 997.35 997.43 997.63 997.83 997.83 997.83 997.95 998.15 998.79 999.39 999.75 1000.39 1001.19 1001.83 1002.43 1002.99 1003.63 1004.19 1004.55 1004.79 1005.07 1005.47 1005.83 1006.15 1006.27 1006.47 1006.67 1007.43 1008.03 1008.51 1008.83 1009.11 1009.47 1010.15 1010.75 1011.19 1011.59 1011.99 1012.31 1012.47 1012.67 1012.79 1012.95 1012.95 1012.87 1012.79 1012.79 1012.63 1012.51 1012.39 1012.19 1011.99 1011.71 1011.47 1011.15 1010.83 1010.43
996.87 996.83 996.87 997.03 997.19 997.23 997.31 997.39 997.55 997.83 997.83 997.79 997.83 998.03 998.35 999.19 999.55 1000.15 1000.95 1001.67 1002.31 1002.79 1003.35 1003.79 1004.19 1004.59 1004.79 1005.07 1005.55 1005.83 1005.99 1006.11 1006.35 1006.87 1007.63 1007.99 1008.35 1008.75 1009.43 1010.39 1011.03 1011.55 1011.91 1012.15 1012.31 1012.39 1012.27 1012.39 1012.55 1012.47 1012.47 1012.51 1012.47 1012.31 1012.15 1011.95 1011.67 1011.43 1011.27 1011.15 1010.87 1010.59 1010.07
996.87 996.87 996.91 997.15 997.27 997.35 997.39 997.47 997.55 997.71 997.87 997.83 997.79 997.87 998.11 998.79 999.43 999.95 1000.59 1001.23 1002.03 1002.51 1002.99 1003.51 1003.87 1004.27 1004.47 1004.79 1005.19 1005.51 1005.63 1005.83 1006.07 1006.71 1007.47 1007.79 1008.15 1008.83 1009.75 1010.59 1011.19 1011.63 1011.79 1011.95 1012.07 1012.03 1011.71 1011.91 1012.39 1012.43 1012.35 1012.27 1012.03 1011.79 1011.71 1011.47 1011.15 1010.91 1010.83 1010.59 1010.31 1009.99 1009.51
996.83 996.99 997.03 997.11 997.35 997.55 997.59 997.63 997.63 997.67 997.79 997.91 997.87 997.91 998.07 998.51 999.11 999.71 1000.43 1000.87 1001.47 1002.15 1002.71 1003.27 1003.71 1003.99 1004.15 1004.47 1004.79 1005.07 1005.35 1005.51 1006.15 1006.99 1007.23 1007.67 1008.51 1009.31 1010.19 1010.83 1011.27 1011.47 1011.63 1011.67 1011.59 1011.55 1011.47 1011.59 1012.19 1012.51 1012.31 1011.91 1011.67 1011.51 1011.23 1011.03 1010.79 1010.51 1010.27 1010.03 1009.59 1009.15 1008.71
996.71 996.87 996.99 997.15 997.27 997.55 997.75 997.83 997.83 997.87 997.87 997.99 998.11 998.07 998.07 998.39 998.91 999.55 1000.11 1000.71 1001.23 1001.75 1002.35 1002.79 1003.23 1003.67 1003.83 1004.07 1004.51 1004.75 1005.11 1005.87 1006.39 1006.75 1007.47 1008.23 1008.99 1009.75 1010.31 1010.71 1010.99 1011.31 1011.47 1010.99 1011.11 1011.43 1011.87 1012.07 1012.19 1012.31 1012.19 1011.91 1011.71 1011.35 1010.95 1010.55 1010.15 1009.95 1009.67 1009.27 1008.79 1008.19 1007.71
996.71 996.87 996.99 997.15 997.31 997.43 997.71 997.95 998.07 998.15 998.15 998.15 998.27 998.35 998.27 998.35 998.79 999.39 999.87 1000.35 1000.95 1001.51 1001.99 1002.55 1002.99 1003.31 1003.63 1003.83 1004.23 1004.99 1005.79 1006.31 1006.75 1007.35 1008.03 1008.87 1009.55 1010.03 1010.51 1010.83 1011.03 1011.23 1010.91 1010.95 1011.39 1011.79 1011.75 1011.87 1012.19 1012.19 1011.99 1011.83 1011.55 1011.07 1010.43 1010.19 1009.79 1009.35 1008.79 1008.43 1007.91 1007.23 1006.43
996.67 996.79 996.95 997.11 997.23 997.39 997.71 997.99 998.15 998.23 998.31 998.35 998.35 998.43 998.43 998.27 998.67 999.23 999.71 1000.35 1000.91 1001.43 1001.95 1002.39 1002.95 1003.27 1003.63 1004.35 1004.99 1005.43 1006.03 1006.87 1007.75 1008.47 1009.23 1009.87 1010.27 1010.59 1010.83 1011.03 1011.03 1010.99 1011.23 1011.51 1011.75 1011.87 1012.03 1012.23 1012.31 1012.11 1011.87 1011.39 1011.07 1010.67 1010.31 1010.15 1009.91 1009.43 1008.79 1008.27 1007.87 1007.51 1006.39
996.55 996.67 996.75 996.87 997.11 997.35 997.63 997.83 997.95 998.11 998.27 998.39 998.35 998.43 998.51 998.47 998.51 998.95 999.59 1000.43 1000.99 1001.47 1001.91 1002.35 1002.87 1003.71 1004.59 1005.31 1006.03 1006.79 1007.55 1008.43 1009.07 1009.43 1009.75 1010.31 1010.79 1010.95 1011.07 1010.79 1010.79 1011.47 1011.87 1011.99 1012.23 1012.43 1012.59 1012.47 1012.27 1011.83 1011.43 1011.19 1010.83 1010.47 1010.19 1010.03 1009.75 1009.23 1008.75 1008.43 1008.11 1007.31 1006.27
996.23 996.35 996.43 996.59 996.83 997.19 997.47 997.67 997.71 997.59 997.59 997.83 997.91 998.03 998.23 998.43 998.51 998.79 999.55 1000.15 1000.75 1001.63 1002.47 1003.27 1004.11 1004.71 1005.27 1005.79 1006.47 1007.35 1008.07 1008.79 1009.27 1009.95 1010.55 1010.75 1010.99 1011.23 1011.27 1011.23 1011.31 1011.27 1011.39 1011.87 1012.27 1012.31 1012.23 1011.99 1011.87 1011.47 1011.35 1011.03 1010.55 1010.19 1009.99 1009.75 1009.35 1009.07 1008.91 1008.47 1008.07 1007.59 1006.95
995.95 995.95 996.11 996.35 996.47 996.59 996.87 996.99 996.91 997.11 997.39 997.63 997.79 997.91 998.15 998.35 998.55 998.83 999.47 1000.11 1000.83 1001.55 1002.47 1003.19 1003.87 1004.79 1005.51 1006.31 1006.87 1007.55 1008.27 1008.71 1009.23 1009.71 1010.27 1010.67 1010.87 1011.15 1010.99 1011.19 1011.31 1011.43 1011.63 1012.03 1012.27 1012.35 1012.23 1011.83 1011.67 1011.11 1011.15 1010.87 1010.43 1009.95 1009.71 1009.59 1009.35 1009.15 1008.99 1008.55 1007.87 1007.43 1006.71
995.83 995.71 995.67 995.95 996.23 996.39 996.35 996.47 996.71 996.87 997.07 997.35 997.51 997.71 997.95 998.27 998.51 998.91 999.43 1000.15 1000.95 1001.79 1002.47 1003.43 1004.31 1005.07 1005.83 1006.47 1006.91 1007.47 1008.11 1008.95 1009.23 1009.67 1010.15 1010.59 1010.95 1011.11 1010.95 1011.15 1011.23 1011.47 1011.91 1012.15 1012.23 1012.27 1012.15 1011.91 1011.59 1011.15 1011.19 1010.79 1010.47 1010.03 1009.63 1009.39 1009.39 1009.31 1008.91 1008.43 1007.95 1007.31 1006.59
996.11 996.03 995.83 995.67 995.83 996.15 996.31 996.35 996.47 996.67 996.83 997.07 997.31 997.51 997.79 998.11 998.47 998.91 999.47 1000.15 1000.59 1001.79 1002.79 1003.43 1004.43 1005.23 1005.99 1006.47 1006.95 1007.67 1008.51 1008.99 1009.27 1009.83 1010.03 1010.51 1010.55 1010.51 1011.11 1011.07 1011.03 1011.63 1012.03 1012.11 1012.19 1011.99 1011.67 1011.51 1011.39 1011.35 1011.23 1010.99 1010.55 1010.23 1009.75 1009.55 1009.23 1008.99 1008.63 1008.11 1007.67 1007.19 1006.75
996.35 996.27 996.11 995.87 995.71 995.79 996.03 996.19 996.31 996.47 996.67 996.91 997.11 997.39 997.67 997.99 998.39 998.87 999.51 1000.23 1001.07 1001.87 1002.91 1003.55 1004.31 1005.19 1005.99 1006.39 1006.87 1007.99 1008.59 1009.03 1009.31 1009.63 1010.03 1010.15 1009.71 1009.87 1010.75 1011.11 1011.51 1011.87 1011.99 1012.07 1011.91 1011.79 1011.51 1011.51 1011.43 1011.47 1011.31 1011.03 1010.55 1010.07 1009.71 1009.83 1009.55 1009.15 1008.75 1008.19 1007.51 1006.83 1006.55
996.55 996.43 996.27 996.07 995.87 995.67 995.91 996.07 996.27 996.43 996.59 996.83 997.07 997.31 997.63 998.03 998.51 999.03 999.63 1000.31 1001.19 1002.03 1002.95 1003.75 1004.43 1005.23 1005.79 1006.43 1007.11 1007.99 1008.51 1008.99 1009.35 1009.63 1009.87 1010.07 1010.15 1010.39 1010.79 1011.23 1011.87 1011.95 1011.87 1011.95 1011.71 1011.59 1011.55 1011.51 1011.47 1011.63 1011.23 1010.55 1010.31 1010.27 1010.23 1009.95 1009.67 1009.35 1008.79 1008.15 1007.91 1007.51 1006.79
996.83 996.67 996.47 996.27 996.11 995.83 995.87 996.07 996.27 996.43 996.63 996.83 997.07 997.31 997.63 998.11 998.71 999.51 1000.43 1001.19 1001.71 1002.11 1002.75 1003.59 1004.51 1005.27 1006.03 1006.59 1007.23 1007.87 1008.19 1008.47 1009.03 1009.47 1009.63 1009.55 1009.99 1010.55 1010.91 1011.31 1011.59 1011.71 1011.87 1011.87 1011.79 1011.55 1011.39 1011.39 1011.39 1011.47 1011.35 1010.71 1010.03 1009.91 1009.79 1009.91 1009.79 1009.47 1009.19 1008.67 1008.15 1007.67 1006.95
997.31 997.07 996.67 996.27 996.11 995.95 995.87 996.15 996.31 996.47 996.59 996.83 997.07 997.31 997.59 998.19 999.03 1000.03 1000.83 1001.67 1002.19 1002.59 1003.19 1003.59 1004.31 1005.07 1005.95 1006.59 1007.19 1007.79 1008.07 1008.39 1008.83 1009.19 1009.39 1009.75 1009.95 1010.15 1010.63 1011.03 1011.43 1011.63 1011.71 1011.83 1011.59 1011.39 1011.39 1011.35 1011.43 1011.47 1011.11 1010.79 1010.55 1010.39 1010.35 1010.31 1010.11 1009.79 1009.31 1008.87 1008.51 1008.11 1007.55
Thickness
5300 5301 5303 5306 5307 5310 5311 5313 5316 5318 5320 5321 5324 5326 5326 5325 5324 5324 5323 5320 5318 5316 5315 5315 5312 5310 5308 5304 5301 5300 5298 5297 5296 5294 5293 5291 5292 5291 5290 5288 5286 5286 5289 5290 5290 5290 5290 5288 5287 5286 5284 5283 5284 5282 5280 5279 5279 5280 5281 5280 5279 5278 5276
5292 5294 5296 5298 5301 5302 5303 5305 5308 5310 5312 5314 5317 5319 5319 5319 5318 5318 5317 5315 5313 5312 5310 5308 5307 5305 5303 5299 5297 5296 5295 5293 5292 5290 5289 5288 5288 5287 5286 5285 5284 5283 5283 5284 5284 5283 5282 5282 5281 5281 5280 5278 5279 5279 5276 5275 5274 5274 5274 5273 5272 5271 5270
5284 5286 5287 5289 5293 5294 5295 5298 5300 5302 5305 5307 5310 5312 5313 5313 5313 5312 5312 5311 5309 5307 5305 5302 5302 5300 5298 5295 5293 5292 5292 5290 5288 5287 5286 5285 5284 5283 5282 5281 5280 5279 5277 5277 5278 5276 5275 5275 5275 5275 5274 5273 5274 5274 5272 5272 5271 5270 5268 5267 5265 5264 5264
5274 5275 5277 5279 5283 5285 5286 5289 5292 5295 5297 5300 5303 5305 5307 5307 5306 5307 5308 5308 5306 5304 5301 5299 5298 5297 5294 5290 5290 5289 5288 5286 5285 5284 5283 5282 5281 5280 5278 5276 5275 5275 5273 5272 5272 5271 5269 5268 5269 5269 5268 5268 5268 5269 5268 5268 5268 5266 5264 5262 5259 5258 5258
5262 5263 5264 5268 5271 5274 5277 5280 5283 5286 5289 5292 5295 5298 5300 5300 5300 5300 5302 5302 5301 5300 5299 5297 5295 5293 5289 5287 5287 5286 5284 5283 5281 5280 5280 5279 5277 5276 5274 5273 5271 5270 5268 5267 5266 5266 5264 5262 5263 5263 5263 5262 5262 5263 5264 5264 5263 5261 5259 5257 5255 5253 5252
5252 5252 5253 5256 5259 5261 5266 5270 5273 5276 5280 5283 5286 5290 5293 5294 5293 5293 5295 5296 5295 5294 5294 5293 5292 5289 5286 5285 5284 5283 5281 5279 5277 5276 5275 5274 5274 5273 5271 5269 5267 5265 5263 5261 5260 5260 5259 5257 5257 5258 5259 5259 5257 5257 5258 5259 5257 5255 5252 5250 5249 5248 5246
5243 5244 5244 5246 5248 5250 5253 5257 5262 5266 5271 5274 5277 5281 5285 5287 5287 5287 5288 5288 5288 5288 5288 5288 5287 5285 5283 5283 5281 5279 5277 5275 5272 5271 5270 5270 5269 5267 5266 5264 5262 5260 5258 5256 5255 5254 5253 5252 5253 5254 5255 5254 5251 5251 5251 5251 5251 5250 5247 5243 5242 5241 5237
5236 5237 5238 5238 5239 5241 5243 5246 5251 5257 5261 5264 5267 5272 5276 5280 5281 5281 5281 5281 5281 5281 5281 5281 5281 5280 5280 5279 5277 5275 5273 5271 5269 5267 5265 5264 5263 5261 5260 5258 5257 5255 5253 5251 5250 5248 5247 5247 5249 5250 5250 5249 5247 5246 5246 5245 5244 5243 5241 5238 5236 5233 5229
5230 5230 5231 5231 5232 5234 5235 5238 5242 5248 5252 5255 5259 5264 5269 5271 5273 5274 5275 5275 5274 5275 5275 5275 5275 5274 5275 5274 5272 5271 5269 5268 5266 5263 5261 5259 5257 5255 5254 5252 5251 5250 5248 5246 5244 5242 5240 5241 5244 5245 5245 5244 5243 5242 5242 5239 5236 5235 5233 5231 5230 5227 5221
5224 5224 5225 5226 5227 5228 5229 5232 5235 5240 5245 5249 5252 5255 5260 5263 5265 5268 5269 5270 5270 5270 5269 5269 5268 5268 5268 5268 5267 5266 5266 5264 5262 5259 5257 5255 5252 5251 5248 5246 5245 5244 5242 5241 5238 5236 5235 5235 5238 5239 5239 5240 5239 5238 5236 5232 5229 5228 5226 5223 5224 5224 5218
5220 5221 5221 5222 5223 5224 5225 5227 5230 5233 5237 5243 5246 5248 5252 5256 5258 5261 5263 5265 5266 5266 5265 5264 5263 5262 5262 5262 5263 5262 5261 5260 5258 5255 5253 5250 5248 5247 5245 5242 5241 5239 5237 5235 5233 5231 5230 5231 5233 5233 5233 5234 5233 5231 5229 5225 5222 5221 5221 5217 5216 5219 5217
5218 5219 5220 5220 5221 5222 5222 5224 5226 5228 5232 5237 5242 5245 5248 5250 5253 5254 5258 5261 5262 5262 5260 5259 5257 5257 5257 5257 5258 5258 5257 5255 5254 5251 5249 5246 5244 5243 5241 5239 5238 5236 5234 5231 5229 5228 5227 5226 5227 5227 5226 5225 5224 5224 5222 5220 5218 5215 5214 5212 5210 5212 5212
5218 5219 5220 5220 5220 5221 5221 5222 5223 5225 5230 5235 5240 5244 5246 5248 5249 5251 5254 5257 5258 5257 5256 5255 5253 5252 5251 5251 5252 5253 5251 5250 5249 5248 5245 5243 5241 5239 5237 5236 5235 5235 5233 5230 5227 5225 5222 5220 5219 5218 5218 5216 5215 5216 5216 5215 5214 5211 5209 5209 5207 5206 5205
5218 5219 5220 5220 5221 5221 5221 5221 5222 5225 5229 5234 5239 5243 5245 5246 5247 5248 5250 5253 5254 5254 5254 5252 5250 5248 5247 5246 5247 5248 5246 5244 5244 5244 5242 5240 5236 5234 5232 5231 5232 5231 5229 5227 5223 5220 5217 5214 5211 5211 5211 5210 5209 5211 5211 5210 5210 5207 5204 5204 5201 5197 5195
5217 5218 5219 5220 5221 5221 5222 5223 5224 5227 5230 5234 5239 5243 5245 5244 5243 5244 5246 5248 5250 5251 5250 5249 5248 5246 5244 5242 5242 5243 5241 5240 5239 5238 5236 5233 5230 5228 5226 5225 5225 5223 5222 5220 5217 5215 5213 5209 5208 5207 5207 5207 5206 5205 5206 5204 5202 5199 5196 5196 5194 5190 5186
5216 5217 5220 5221 5221 5221 5222 5225 5226 5228 5232 5235 5239 5243 5244 5242 5240 5241 5243 5244 5245 5246 5246 5246 5245 5243 5241 5238 5238 5239 5238 5237 5235 5232 5229 5226 5223 5221 5220 5218 5218 5218 5216 5215 5213 5211 5209 5207 5206 5205 5204 5204 5202 5201 5199 5197 5193 5191 5187 5185 5185 5185 5182
5216 5218 5220 5221 5221 5221 5223 5226 5228 5230 5233 5236 5239 5243 5242 5240 5238 5239 5240 5241 5241 5242 5242 5242 5241 5239 5236 5234 5233 5234 5235 5234 5231 5226 5223 5219 5216 5214 5214 5212 5213 5212 5211 5210 5208 5207 5205 5204 5203 5201 5199 5197 5195 5194 5192 5188 5186 5184 5179 5175 5176 5178 5178
5216 5219 5220 5220 5221 5222 5223 5226 5229 5232 5234 5237 5240 5242 5240 5239 5238 5237 5238 5238 5238 5239 5239 5239 5238 5235 5232 5230 5229 5230 5232 5231 5227 5221 5216 5213 5210 5209 5209 5208 5207 5205 5204 5203 5201 5200 5199 5197 5196 5194 5191 5189 5188 5187 5183 5179 5178 5176 5169 5166 5167 5168 5169
5216 5219 5220 5220 5221 5223 5225 5227 5229 5232 5235 5237 5240 5241 5239 5239 5238 5235 5235 5236 5235 5235 5235 5235 5234 5231 5228 5227 5227 5227 5229 5228 5224 5217 5212 5209 5206 5205 5205 5205 5203 5200 5199 5196 5194 5193 5190 5190 5189 5186 5183 5182 5181 5178 5175 5170 5168 5166 5161 5161 5161 5158 5156
5216 5219 5220 5221 5222 5223 5225 5226 5228 5231 5235 5237 5240 5241 5238 5238 5238 5235 5233 5233 5232 5231 5229 5229 5228 5226 5225 5225 5224 5224 5225 5224 5221 5215 5210 5207 5205 5203 5203 5202 5198 5195 5193 5189 5187 5185 5184 5182 5181 5179 5177 5176 5173 5170 5167 5164 5162 5160 5157 5155 5155 5150 5146
5216 5219 5220 5221 5222 5222 5224 5226 5228 5230 5233 5235 5238 5239 5238 5237 5236 5235 5232 5231 5230 5228 5226 5224 5223 5223 5223 5222 5221 5221 5220 5220 5219 5214 5208 5205 5203 5202 5200 5196 5192 5189 5185 5183 5181 5179 5178 5176 5175 5174 5172 5170 5167 5165 5162 5160 5157 5155 5153 5150 5148 5146 5142
5215 5219 5220 5220 5221 5222 5224 5227 5227 5228 5230 5233 5236 5238 5238 5236 5235 5234 5232 5229 5227 5225 5224 5223 5221 5220 5220 5219 5218 5217 5216 5216 5217 5212 5206 5203 5202 5199 5195 5189 5185 5181 5179 5177 5175 5175 5174 5173 5171 5170 5168 5165 5163 5161 5158 5157 5155 5151 5148 5144 5141 5139 5139
5215 5217 5219 5219 5220 5221 5223 5225 5227 5227 5228 5231 5234 5236 5237 5235 5233 5232 5230 5227 5226 5224 5222 5221 5219 5218 5218 5217 5214 5213 5213 5213 5212 5207 5202 5200 5197 5193 5188 5182 5178 5176 5174 5174 5172 5171 5172 5170 5167 5164 5163 5162 5160 5158 5156 5153 5151 5148 5144 5140 5138 5135 5135
5216 5216 5217 5219 5219 5219 5221 5222 5224 5226 5227 5228 5231 5234 5236 5236 5233 5231 5229 5227 5225 5223 5221 5219 5216 5215 5215 5214 5212 5211 5211 5209 5206 5201 5198 5195 5191 5186 5180 5176 5174 5172 5171 5171 5170 5169 5168 5166 5162 5160 5159 5158 5157 5155 5153 5151 5147 5145 5142 5138 5136 5135 5136
5217 5217 5217 5218 5218 5218 5219 5219 5221 5223 5225 5226 5229 5231 5234 5235 5232 5230 5228 5226 5224 5223 5220 5218 5216 5214 5213 5212 5211 5209 5206 5202 5199 5196 5193 5188 5183 5178 5174 5172 5170 5168 5168 5169 5167 5165 5163 5161 5158 5155 5155 5154 5152 5151 5150 5148 5146 5143 5141 5138 5137 5136 5138
5216 5217 5217 5217 5218 5218 5217 5217 5218 5221 5223 5225 5227 5228 5232 5233 5232 5230 5228 5226 5224 5221 5218 5216 5214 5212 5211 5210 5207 5203 5199 5195 5192 5188 5184 5179 5175 5172 5169 5167 5166 5165 5165 5164 5162 5159 5158 5156 5153 5152 5151 5149 5149 5149 5148 5146 5144 5142 5140 5138 5136 5136 5138
5216 5217 5217 5217 5218 5218 5216 5216 5217 5219 5220 5223 5225 5226 5229 5232 5231 5230 5227 5224 5221 5219 5216 5215 5212 5210 5207 5203 5199 5194 5190 5185 5181 5178 5174 5169 5167 5165 5163 5163 5162 5161 5159 5158 5155 5153 5152 5149 5148 5148 5148 5147 5146 5146 5145 5142 5140 5140 5138 5137 5135 5134 5136
5217 5218 5218 5218 5218 5217 5217 5217 5218 5219 5221 5222 5225 5226 5228 5230 5231 5230 5225 5221 5218 5216 5213 5211 5207 5202 5198 5193 5189 5184 5179 5174 5170 5167 5165 5162 5159 5158 5158 5158 5158 5155 5153 5151 5149 5147 5146 5145 5145 5144 5145 5144 5143 5143 5142 5139 5138 5137 5135 5133 5131 5131 5133
5220 5220 5221 5220 5220 5219 5218 5218 5220 5223 5224 5224 5226 5228 5228 5228 5230 5229 5224 5220 5217 5213 5208 5204 5199 5195 5190 5186 5181 5176 5171 5167 5164 5160 5157 5155 5154 5153 5153 5153 5153 5152 5149 5147 5144 5142 5142 5142 5142 5142 5141 5140 5140 5140 5138 5137 5135 5134 5132 5130 5128 5127 5128
5223 5224 5224 5223 5223 5223 5223 5224 5225 5226 5227 5226 5227 5228 5228 5228 5228 5227 5223 5219 5215 5210 5205 5200 5195 5190 5185 5181 5177 5172 5167 5163 5160 5157 5154 5151 5150 5150 5150 5150 5148 5147 5145 5142 5140 5139 5138 5138 5139 5139 5137 5136 5137 5137 5135 5133 5131 5129 5128 5127 5126 5125 5125
5223 5225 5226 5226 5225 5225 5226 5228 5228 5228 5228 5228 5228 5228 5227 5226 5226 5224 5221 5217 5213 5208 5202 5196 5191 5186 5181 5177 5173 5169 5164 5160 5157 5155 5152 5149 5147 5147 5146 5146 5145 5143 5140 5138 5136 5135 5135 5135 5134 5134 5133 5132 5133 5133 5132 5130 5127 5125 5124 5124 5124 5124 5123
5221 5223 5226 5228 5228 5227 5228 5229 5229 5229 5229 5229 5228 5228 5227 5226 5225 5222 5219 5215 5211 5205 5199 5194 5189 5182 5177 5174 5170 5165 5160 5157 5154 5152 5149 5147 5147 5146 5144 5143 5142 5139 5136 5134 5134 5133 5133 5132 5131 5129 5128 5128 5128 5128 5127 5126 5123 5122 5121 5121 5122 5122 5121
5219 5220 5223 5226 5229 5229 5229 5229 5229 5230 5229 5229 5228 5228 5226 5224 5223 5220 5216 5212 5208 5201 5195 5190 5186 5180 5175 5172 5168 5161 5157 5154 5152 5149 5147 5146 5148 5146 5142 5139 5137 5135 5133 5132 5131 5131 5130 5129 5127 5125 5124 5124 5124 5123 5122 5120 5119 5118 5118 5118 5119 5120 5120
5217 5219 5220 5223 5227 5229 5229 5229 5228 5228 5228 5227 5226 5226 5224 5222 5219 5216 5212 5208 5203 5198 5192 5187 5182 5177 5173 5169 5164 5159 5155 5152 5150 5147 5146 5145 5144 5142 5139 5136 5132 5131 5130 5129 5128 5128 5127 5125 5123 5122 5121 5121 5122 5120 5117 5115 5114 5114 5114 5114 5115 5115 5116
5214 5216 5218 5221 5224 5227 5228 5228 5227 5226 5226 5225 5224 5224 5222 5219 5216 5211 5205 5200 5197 5194 5190 5185 5180 5175 5170 5165 5161 5157 5154 5153 5149 5146 5145 5144 5142 5139 5136 5133 5131 5129 5127 5125 5125 5125 5124 5122 5120 5117 5117 5117 5118 5116 5114 5112 5110 5109 5109 5110 5110 5110 5111
5211 5214 5217 5221 5223 5225 5226 5225 5224 5224 5224 5222 5221 5221 5219 5216 5211 5205 5198 5193 5191 5188 5185 5182 5178 5173 5168 5164 5159 5156 5153 5151 5148 5145 5144 5142 5139 5137 5135 5131 5129 5127 5124 5123 5123 5122 5121 5119 5117 5115 5113 5114 5114 5112 5109 5107 5105 5104 5105 5105 5105 5106 5106